Time,TemperatureF,DewpointF,PressureIn,WindDirection,WindDirectionDegrees,WindSpeedMPH,WindSpeedGustMPH,Humidity,HourlyPrecipIn,Conditions,Clouds,dailyrainin,SoftwareType,DateUTC
2013-01-28 00:06:00,21.4,1.0,30.39,NW,317,0.0,-999.0,41,-99.99,,,0.00,weatherlink.com 1.10,2013-01-28 05:06:00,
2013-01-28 00:21:00,21.2,2.0,30.39,NW,315,4.0,-999.0,43,-99.99,,,0.00,weatherlink.com 1.10,2013-01-28 05:21:00,
2013-01-28 00:36:00,20.9,2.0,30.38,NW,311,0.0,-999.0,43,-99.99,,,0.00,weatherlink.com 1.10,2013-01-28 05:36:00,
2013-01-28 00:51:00,20.7,2.0,30.38,NW,311,0.0,-999.0,44,-99.99,,,0.00,weatherlink.com 1.10,2013-01-28 05:51:00,
2013-01-28 01:09:00,20.6,2.0,30.38,NW,311,1.0,-999.0,45,-99.99,,,0.00,weatherlink.com 1.10,2013-01-28 06:09:00,
2013-01-28 01:21:00,20.3,2.0,30.38,NW,311,0.0,-999.0,45,-99.99,,,0.00,weatherlink.com 1.10,2013-01-28 06:21:00,
2013-01-28 01:37:00,19.8,2.0,30.39,NW,311,0.0,-999.0,47,-99.99,,,0.00,weatherlink.com 1.10,2013-01-28 06:37:00,
2013-01-28 01:51:00,19.6,3.0,30.39,NW,311,0.0,-999.0,48,-99.99,,,0.00,weatherlink.com 1.10,2013-01-28 06:51:00,
2013-01-28 02:06:00,19.2,3.0,30.39,NW,311,0.0,-999.0,50,-99.99,,,0.00,weatherlink.com 1.10,2013-01-28 07:06:00,
2013-01-28 02:21:00,19.4,3.0,30.39,NW,311,0.0,-999.0,50,-99.99,,,0.00,weatherlink.com 1.10,2013-01-28 07:21:00,
2013-01-28 02:39:00,20.1,4.0,30.38,NW,319,0.0,-999.0,49,-99.99,,,0.00,weatherlink.com 1.10,2013-01-28 07:39:00,
2013-01-28 02:52:00,20.4,3.0,30.38,NW,319,0.0,-999.0,48,-99.99,,,0.00,weatherlink.com 1.10,2013-01-28 07:52:00,
2013-01-28 03:06:00,20.2,4.0,30.37,NW,319,0.0,-999.0,49,-99.99,,,0.00,weatherlink.com 1.10,2013-01-28 08:06:00,
2013-01-28 03:21:00,19.8,4.0,30.37,NW,319,0.0,-999.0,50,-99.99,,,0.00,weatherlink.com 1.10,2013-01-28 08:21:00,
2013-01-28 03:36:00,20.0,4.0,30.38,NW,319,0.0,-999.0,51,-99.99,,,0.00,weatherlink.com 1.10,2013-01-28 08:36:00,
2013-01-28 03:52:00,20.5,4.0,30.37,NW,319,0.0,-999.0,49,-99.99,,,0.00,weatherlink.com 1.10,2013-01-28 08:52:00,
2013-01-28 04:07:00,20.8,4.0,30.37,NW,319,0.0,-999.0,48,-99.99,,,0.00,weatherlink.com 1.10,2013-01-28 09:07:00,
2013-01-28 04:24:00,21.0,4.0,30.37,NW,319,0.0,-999.0,49,-99.99,,,0.00,weatherlink.com 1.10,2013-01-28 09:24:00,
2013-01-28 04:36:00,21.2,5.0,30.36,NW,319,0.0,-999.0,49,-99.99,,,0.00,weatherlink.com 1.10,2013-01-28 09:36:00,
2013-01-28 04:52:00,21.3,5.0,30.36,NW,319,0.0,-999.0,49,-99.99,,,0.00,weatherlink.com 1.10,2013-01-28 09:52:00,
2013-01-28 05:06:00,21.4,5.0,30.36,NW,319,0.0,-999.0,49,-99.99,,,0.00,weatherlink.com 1.10,2013-01-28 10:06:00,
2013-01-28 05:21:00,21.5,4.0,30.35,NW,319,0.0,-999.0,48,-99.99,,,0.00,weatherlink.com 1.10,2013-01-28 10:21:00,
2013-01-28 05:36:00,21.4,5.0,30.36,NW,319,0.0,-999.0,49,-99.99,,,0.00,weatherlink.com 1.10,2013-01-28 10:36:00,
2013-01-28 05:51:00,21.1,5.0,30.36,NW,319,0.0,-999.0,49,-99.99,,,0.00,weatherlink.com 1.10,2013-01-28 10:51:00,
2013-01-28 06:06:00,20.7,5.0,30.36,NW,319,0.0,-999.0,50,-99.99,,,0.00,weatherlink.com 1.10,2013-01-28 11:06:00,
2013-01-28 06:21:00,20.4,5.0,30.35,NW,319,0.0,-999.0,52,-99.99,,,0.00,weatherlink.com 1.10,2013-01-28 11:21:00,
2013-01-28 06:37:00,20.1,6.0,30.35,NW,319,0.0,-999.0,54,-99.99,,,0.00,weatherlink.com 1.10,2013-01-28 11:37:00,
2013-01-28 06:52:00,20.0,6.0,30.36,NW,319,0.0,-999.0,55,-99.99,,,0.00,weatherlink.com 1.10,2013-01-28 11:52:00,
2013-01-28 07:06:00,20.0,6.0,30.35,NW,319,0.0,-999.0,55,-99.99,,,0.00,weatherlink.com 1.10,2013-01-28 12:06:00,
2013-01-28 07:21:00,20.2,7.0,30.36,NW,319,0.0,-999.0,56,-99.99,,,0.00,weatherlink.com 1.10,2013-01-28 12:21:00,
2013-01-28 07:36:00,20.5,7.0,30.36,NW,319,0.0,-999.0,56,-99.99,,,0.00,weatherlink.com 1.10,2013-01-28 12:36:00,
2013-01-28 07:51:00,20.9,7.0,30.36,NW,319,0.0,-999.0,56,-99.99,,,0.00,weatherlink.com 1.10,2013-01-28 12:51:00,
2013-01-28 08:06:00,21.5,8.0,30.36,NW,319,0.0,-999.0,56,-99.99,,,0.00,weatherlink.com 1.10,2013-01-28 13:06:00,
2013-01-28 08:22:00,22.4,8.0,30.35,NW,319,0.0,-999.0,53,-99.99,,,0.00,weatherlink.com 1.10,2013-01-28 13:22:00,
2013-01-28 08:36:00,23.4,7.0,30.35,WNW,292,0.0,-999.0,50,-99.99,,,0.00,weatherlink.com 1.10,2013-01-28 13:36:00,
2013-01-28 08:51:00,24.3,7.0,30.35,WNW,300,0.0,-999.0,47,-99.99,,,0.00,weatherlink.com 1.10,2013-01-28 13:51:00,
2013-01-28 09:09:00,25.2,8.0,30.35,NW,313,0.0,-999.0,49,-99.99,,,0.00,weatherlink.com 1.10,2013-01-28 14:09:00,
2013-01-28 09:21:00,26.0,5.0,30.35,NW,313,0.0,-999.0,41,-99.99,,,0.00,weatherlink.com 1.10,2013-01-28 14:21:00,
2013-01-28 09:36:00,26.8,5.0,30.34,NW,313,0.0,-999.0,39,-99.99,,,0.00,weatherlink.com 1.10,2013-01-28 14:36:00,
2013-01-28 09:51:00,27.3,6.0,30.34,NW,309,0.0,-999.0,40,-99.99,,,0.00,weatherlink.com 1.10,2013-01-28 14:51:00,
2013-01-28 10:06:00,28.0,5.0,30.34,West,281,0.0,-999.0,38,-99.99,,,0.00,weatherlink.com 1.10,2013-01-28 15:06:00,
2013-01-28 10:21:00,28.6,5.0,30.34,West,281,0.0,-999.0,36,-99.99,,,0.00,weatherlink.com 1.10,2013-01-28 15:21:00,
2013-01-28 10:36:00,29.0,4.0,30.33,West,281,0.0,-999.0,35,-99.99,,,0.00,weatherlink.com 1.10,2013-01-28 15:36:00,
2013-01-28 10:52:00,29.5,5.0,30.31,West,281,0.0,-999.0,35,-99.99,,,0.00,weatherlink.com 1.10,2013-01-28 15:52:00,
2013-01-28 11:06:00,29.9,4.0,30.30,West,281,0.0,-999.0,33,-99.99,,,0.00,weatherlink.com 1.10,2013-01-28 16:06:00,
2013-01-28 11:22:00,30.1,3.0,30.29,West,277,2.0,-999.0,32,-99.99,,,0.00,weatherlink.com 1.10,2013-01-28 16:22:00,
2013-01-28 11:36:00,30.3,6.0,30.29,SW,217,2.0,-999.0,35,-99.99,,,0.00,weatherlink.com 1.10,2013-01-28 16:36:00,
2013-01-28 11:52:00,30.1,8.0,30.28,SSE,153,1.0,-999.0,40,-99.99,,,0.00,weatherlink.com 1.10,2013-01-28 16:52:00,
2013-01-28 12:06:00,30.1,9.0,30.26,SE,146,0.0,-999.0,41,-99.99,,,0.00,weatherlink.com 1.10,2013-01-28 17:06:00,
2013-01-28 12:21:00,30.5,8.0,30.24,SE,146,0.0,-999.0,39,-99.99,,,0.00,weatherlink.com 1.10,2013-01-28 17:21:00,
2013-01-28 12:36:00,30.9,8.0,30.25,SSE,148,0.0,-999.0,38,-99.99,,,0.00,weatherlink.com 1.10,2013-01-28 17:36:00,
2013-01-28 12:51:00,31.3,4.0,30.23,West,271,1.0,-999.0,32,-99.99,,,0.00,weatherlink.com 1.10,2013-01-28 17:51:00,
2013-01-28 13:06:00,31.6,5.0,30.21,West,271,1.0,-999.0,33,-99.99,,,0.00,weatherlink.com 1.10,2013-01-28 18:06:00,
2013-01-28 13:21:00,31.7,7.0,30.21,West,271,0.0,-999.0,36,-99.99,,,0.00,weatherlink.com 1.10,2013-01-28 18:21:00,
2013-01-28 13:36:00,31.4,8.0,30.19,South,169,1.0,-999.0,37,-99.99,,,0.00,weatherlink.com 1.10,2013-01-28 18:36:00,
2013-01-28 13:51:00,31.5,8.0,30.18,SSE,154,0.0,-999.0,37,-99.99,,,0.00,weatherlink.com 1.10,2013-01-28 18:51:00,
2013-01-28 14:06:00,31.6,8.0,30.16,SSE,154,0.0,-999.0,37,-99.99,,,0.00,weatherlink.com 1.10,2013-01-28 19:06:00,
2013-01-28 14:21:00,31.7,11.0,30.15,SSE,157,0.0,-999.0,42,-99.99,,,0.00,weatherlink.com 1.10,2013-01-28 19:21:00,
2013-01-28 14:36:00,31.1,13.0,30.15,West,275,0.0,-999.0,47,-99.99,,,0.00,weatherlink.com 1.10,2013-01-28 19:36:00,
2013-01-28 14:51:00,30.9,16.0,30.15,SSW,198,0.0,-999.0,54,-99.99,,,0.00,weatherlink.com 1.10,2013-01-28 19:51:00,
2013-01-28 15:06:00,30.3,19.0,30.14,WSW,257,0.0,-999.0,64,-99.99,,,0.00,weatherlink.com 1.10,2013-01-28 20:06:00,
2013-01-28 15:21:00,29.2,22.0,30.14,WSW,253,0.0,-999.0,73,-99.99,,,0.00,weatherlink.com 1.10,2013-01-28 20:21:00,
2013-01-28 15:36:00,28.4,23.0,30.14,WSW,253,0.0,-999.0,79,-99.99,,,0.00,weatherlink.com 1.10,2013-01-28 20:36:00,
2013-01-28 15:51:00,27.9,23.0,30.13,WSW,253,0.0,-999.0,82,-99.99,,,0.00,weatherlink.com 1.10,2013-01-28 20:51:00,
2013-01-28 16:06:00,27.6,24.0,30.13,WSW,253,0.0,-999.0,85,-99.99,,,0.00,weatherlink.com 1.10,2013-01-28 21:06:00,
2013-01-28 16:21:00,27.3,24.0,30.13,WSW,253,0.0,-999.0,87,-99.99,,,0.00,weatherlink.com 1.10,2013-01-28 21:21:00,
2013-01-28 16:36:00,27.1,24.0,30.13,WSW,252,0.0,-999.0,87,-99.99,,,0.00,weatherlink.com 1.10,2013-01-28 21:36:00,
2013-01-28 16:51:00,27.0,24.0,30.10,SSE,148,0.0,-999.0,89,-99.99,,,0.00,weatherlink.com 1.10,2013-01-28 21:51:00,
2013-01-28 17:06:00,26.9,24.0,30.09,SSE,148,0.0,-999.0,90,-99.99,,,0.00,weatherlink.com 1.10,2013-01-28 22:06:00,
2013-01-28 17:21:00,26.7,25.0,30.09,SE,144,0.0,-999.0,91,-99.99,,,0.00,weatherlink.com 1.10,2013-01-28 22:21:00,
2013-01-28 17:36:00,26.7,25.0,30.07,SE,139,1.0,-999.0,91,-99.99,,,0.00,weatherlink.com 1.10,2013-01-28 22:36:00,
2013-01-28 17:51:00,26.8,25.0,30.06,SE,138,2.0,-999.0,92,-99.99,,,0.00,weatherlink.com 1.10,2013-01-28 22:51:00,
2013-01-28 18:06:00,27.1,25.0,30.06,SE,138,0.0,-999.0,93,-99.99,,,0.00,weatherlink.com 1.10,2013-01-28 23:06:00,
2013-01-28 18:21:00,27.4,26.0,30.05,SE,138,0.0,-999.0,93,-99.99,,,0.00,weatherlink.com 1.10,2013-01-28 23:21:00,
2013-01-28 18:36:00,27.7,26.0,30.04,SE,138,0.0,-999.0,93,-99.99,,,0.00,weatherlink.com 1.10,2013-01-28 23:36:00,
2013-01-28 18:51:00,28.0,27.0,30.05,SE,138,0.0,-999.0,94,-99.99,,,0.00,weatherlink.com 1.10,2013-01-28 23:51:00,
2013-01-28 19:06:00,28.3,27.0,30.04,SE,138,0.0,-999.0,94,-99.99,,,0.00,weatherlink.com 1.10,2013-01-29 00:06:00,
2013-01-28 19:21:00,28.5,27.0,30.03,SE,138,0.0,-999.0,94,-99.99,,,0.00,weatherlink.com 1.10,2013-01-29 00:21:00,
2013-01-28 19:36:00,28.7,27.0,30.05,SE,140,1.0,-999.0,94,-99.99,,,0.00,weatherlink.com 1.10,2013-01-29 00:36:00,
2013-01-28 19:51:00,28.8,27.0,30.04,SE,140,0.0,-999.0,94,-99.99,,,0.00,weatherlink.com 1.10,2013-01-29 00:51:00,
2013-01-28 20:06:00,28.9,27.0,30.04,SE,140,0.0,-999.0,94,-99.99,,,0.00,weatherlink.com 1.10,2013-01-29 01:06:00,
2013-01-28 20:21:00,28.9,27.0,30.02,SE,140,0.0,-999.0,94,-99.99,,,0.00,weatherlink.com 1.10,2013-01-29 01:21:00,
2013-01-28 20:36:00,29.0,28.0,30.03,SE,140,0.0,-999.0,94,-99.99,,,0.00,weatherlink.com 1.10,2013-01-29 01:36:00,
2013-01-28 20:51:00,29.3,28.0,30.01,SE,140,0.0,-999.0,94,-99.99,,,0.00,weatherlink.com 1.10,2013-01-29 01:51:00,
2013-01-28 21:06:00,29.5,28.0,30.00,SE,140,0.0,-999.0,94,-99.99,,,0.00,weatherlink.com 1.10,2013-01-29 02:06:00,
2013-01-28 21:22:00,29.5,28.0,29.99,SE,140,1.0,-999.0,94,-99.99,,,0.00,weatherlink.com 1.10,2013-01-29 02:22:00,
2013-01-28 21:36:00,29.5,28.0,29.98,SE,140,0.0,-999.0,94,-99.99,,,0.00,weatherlink.com 1.10,2013-01-29 02:36:00,
2013-01-28 21:51:00,29.6,28.0,29.98,SE,140,0.0,-999.0,95,-99.99,,,0.00,weatherlink.com 1.10,2013-01-29 02:51:00,
2013-01-28 22:06:00,29.7,29.0,29.98,SE,140,0.0,-999.0,95,-99.99,,,0.00,weatherlink.com 1.10,2013-01-29 03:06:00,
2013-01-28 22:21:00,29.8,29.0,29.97,SE,140,0.0,-999.0,95,-99.99,,,0.00,weatherlink.com 1.10,2013-01-29 03:21:00,
2013-01-28 22:37:00,29.9,29.0,29.97,SE,140,0.0,-999.0,95,-99.99,,,0.00,weatherlink.com 1.10,2013-01-29 03:37:00,
2013-01-28 22:51:00,29.9,28.0,29.97,SE,140,0.0,-999.0,94,-99.99,,,0.00,weatherlink.com 1.10,2013-01-29 03:51:00,
2013-01-28 23:07:00,29.9,29.0,29.97,SE,140,0.0,-999.0,95,-99.99,,,0.00,weatherlink.com 1.10,2013-01-29 04:07:00,
2013-01-28 23:21:00,30.1,29.0,29.97,SE,140,0.0,-999.0,95,-99.99,,,0.00,weatherlink.com 1.10,2013-01-29 04:21:00,
2013-01-28 23:36:00,30.3,29.0,29.97,SE,140,0.0,-999.0,95,-99.99,,,0.00,weatherlink.com 1.10,2013-01-29 04:36:00,
2013-01-28 23:51:00,30.1,29.0,29.96,SE,140,0.0,-999.0,95,-99.99,,,0.00,weatherlink.com 1.10,2013-01-29 04:51:00,